User: anonymous   Login
Location: Leeds
(37.2390°N, 113.3580°W)
Time: 17:01:48
(UTC-06:00)
Language:

SL-08 RB Rocket - Orbit

View from above orbital plane
View from above orbital plane
View from above satellite
View from above satellite

Ground track
Ground track

The orbit data is extracted from the following two-line orbital elements,

1 26387U 00033D   18109.61685927 +.00000089 +00000-0 +23571-4 0  9994
2 26387 097.9270 170.3493 0027903 082.9740 038.8235 14.68377933210531
Epoch (UTC): 19 April 2018 14:48:16
Eccentricity: 0.0027903
inclination: 97.9270°
perigee height: 646 km
apogee height: 686 km
right ascension of ascending node: 170.3493°
argument of perigee: 82.9740°
revolutions per day: 14.68377933
mean anomaly at epoch: 38.8235°
orbit number at epoch: 21053

The dashed part of the orbit path shows where the satellite is in the earth's shadow,  

DLR